FW6131 Weather Reports


time (UTC)temp
F
wind
direction
speed
knots
gust
knots
rain 1hr
in
rain 24hr
in
rain mn
in
humidity
%
barometer
mb
20260506144542 57 355 0.9 9.6 0.00 0.00 0.00 61 1009.9
20260506143040 57 129 1.7 7.8 0.00 0.00 0.00 59 1010.0
20260506141538 57 33 1.7 7.8 0.00 0.00 0.00 59 1010.1
20260506140041 57 41 2.6 11.3 0.00 0.00 0.00 55 1009.9
20260506134539 57 39 1.7 9.6 0.00 0.00 0.00 53 1010.0
20260506133039 57 31 2.6 10.4 0.00 0.00 0.00 52 1009.9
20260506131548 57 16 3.5 8.7 0.00 0.00 0.00 49 1009.8
20260506130053 57 20 2.6 9.6 0.00 0.00 0.00 49 1009.8
20260506124545 58 25 2.6 13.9 0.00 0.00 0.00 47 1009.7
20260506123043 58 5 3.5 11.3 0.00 0.00 0.00 47 1009.6
20260506121539 59 68 2.6 7.8 0.00 0.00 0.00 46 1009.5
20260506120040 59 29 5.2 11.3 0.00 0.00 0.00 45 1009.4
20260506114538 58 29 5.2 13.0 0.00 0.00 0.00 46 1009.3
20260506113046 58 24 4.3 10.4 0.00 0.00 0.00 45 1009.4
20260506111540 57 360 5.2 11.3 0.00 0.00 0.00 45 1009.3
20260506110045 57 39 4.3 12.2 0.00 0.00 0.00 46 1009.4
20260506104547 56 29 4.3 11.3 0.00 0.00 0.00 47 1009.5
20260506103047 56 23 4.3 12.2 0.00 0.00 0.00 46 1009.4
20260506101549 56 14 4.3 11.3 0.00 0.00 0.00 47 1009.5
20260506100056 55 23 5.2 10.4 0.00 0.00 0.00 50 1009.6
20260506094540 55 14 2.6 12.2 0.00 0.00 0.00 52 1009.6
20260506093043 54 47 4.3 11.3 0.00 0.00 0.00 53 1009.6
20260506091539 54 355 3.5 12.2 0.00 0.00 0.00 53 1009.6
20260506090038 54 355 3.5 9.6 0.00 0.00 0.00 56 1009.6
20260506084549 53 355 3.5 9.6 0.00 0.00 0.00 56 1009.6
20260506083041 53 355 4.3 10.4 0.00 0.00 0.00 57 1009.7
20260506081545 52 355 3.5 10.4 0.00 0.00 0.00 58 1009.6
20260506073044 51 355 4.3 8.7 0.00 0.00 0.00 62 1009.5
20260506071541 50 355 4.3 10.4 0.00 0.00 0.00 64 1009.5
20260506061540 48 355 4.3 10.4 0.00 0.00 0.00 69 1009.4
20260506044625 47 355 3.5 8.7 0.00 0.00 0.00 75 1009.5
20260506043038 47 355 3.5 8.7 0.00 0.00 0.00 76 1009.6
20260506041536 47 355 2.6 7.0 0.00 0.00 0.00 77 1009.4
20260506040039 47 355 3.5 7.0 0.00 0.00 0.00 79 1009.5
20260506034610 46 355 2.6 7.0 0.00 0.00 0.00 82 1009.5
20260506033039 46 355 2.6 7.0 0.00 0.00 0.00 83 1009.5
20260506031540 46 355 0.9 5.2 0.00 0.00 0.00 85 1009.5
20260506030038 46 355 2.6 7.8 0.00 0.00 0.00 85 1009.5
20260506024540 46 355 2.6 8.7 0.00 0.00 0.00 85 1009.7
20260506023101 46 355 2.6 7.0 0.00 0.00 0.00 86 1009.9
20260506021537 45 355 1.7 4.3 0.00 0.00 0.00 86 1009.9
20260506020039 45 355 1.7 5.2 0.00 0.00 0.00 87 1010.2
20260506014537 46 355 0.9 3.5 0.00 0.00 0.00 86 1010.3
20260506013040 46 355 0.0 2.6 0.00 0.00 0.00 85 1010.2
20260506011540 46 355 0.0 1.7 0.00 0.00 0.00 85 1010.2
20260506010048 47 355 0.0 2.6 0.00 0.00 0.00 85 1010.3
20260506004559 47 0 0.9 4.3 0.00 0.00 0.00 84 1010.4
20260506003046 47 355 1.7 4.3 0.00 0.00 0.00 85 1010.6
20260506001540 47 355 1.7 5.2 0.00 0.00 0.00 84 1010.7
20260506000037 48 355 1.7 3.5 0.00 0.00 0.00 84 1010.8
20260505234556 48 355 1.7 5.2 0.00 0.00 0.00 84 1010.9
20260505233038 48 355 1.7 5.2 0.00 0.00 0.00 83 1010.7
20260505231539 48 355 0.9 4.3 0.00 0.00 0.00 83 1010.9
20260505230042 48 355 2.6 7.8 0.00 0.00 0.00 82 1010.8
20260505224540 48 355 1.7 4.3 0.00 0.00 0.00 82 1010.8
20260505223036 48 355 1.7 4.3 0.00 0.00 0.00 81 1011.1
20260505221536 48 355 1.7 5.2 0.00 0.00 0.00 81 1011.0
20260505220051 48 355 1.7 3.5 0.00 0.00 0.00 80 1011.2
20260505214540 49 355 0.9 3.5 0.00 0.00 0.00 79 1011.4
20260505213038 49 355 1.7 4.3 0.00 0.00 0.00 78 1011.4
20260505211546 49 355 1.7 5.2 0.00 0.00 0.00 76 1011.4
20260505210038 50 355 1.7 4.3 0.00 0.00 0.00 76 1011.4
20260505204538 50 355 0.9 2.6 0.00 0.00 0.00 77 1011.4
20260505203038 50 355 0.0 2.6 0.00 0.00 0.00 76 1011.2
20260505201539 51 355 0.0 1.7 0.00 0.00 0.00 75 1011.2
20260505200038 52 355 0.9 1.7 0.00 0.00 0.00 72 1011.2
20260505194543 52 355 0.9 2.6 0.00 0.00 0.00 71 1011.1
20260505193045 53 355 0.9 3.5 0.00 0.00 0.00 70 1010.9
20260505191551 53 355 0.9 2.6 0.00 0.00 0.00 70 1010.9
20260505190038 54 355 0.9 5.2 0.00 0.00 0.00 69 1010.8
20260505184538 55 355 0.9 4.3 0.00 0.00 0.00 69 1010.7
20260505183036 55 355 1.7 7.0 0.00 0.00 0.00 68 1010.7
20260505181539 56 23 1.7 7.8 0.00 0.00 0.00 68 1010.8
20260505180052 56 360 1.7 7.0 0.00 0.00 0.00 68 1010.9
20260505174546 56 355 2.6 7.8 0.00 0.00 0.00 68 1010.9
20260505173038 57 20 3.5 6.1 0.00 0.00 0.00 68 1010.9
20260505171538 56 42 1.7 6.1 0.00 0.00 0.00 69 1011.1
20260505170041 57 4 1.7 4.3 0.00 0.00 0.00 70 1011.0
20260505164540 57 14 3.5 8.7 0.00 0.00 0.00 69 1011.0
20260505163040 57 311 2.6 8.7 0.00 0.00 0.00 69 1011.1
20260505161540 57 36 2.6 7.8 0.00 0.00 0.00 69 1011.0
20260505153053 58 23 2.6 6.1 0.00 0.00 0.00 68 1011.4
20260505151546 57 338 2.6 7.8 0.00 0.00 0.00 70 1011.4